User: anonymous   Login
Location: Bou Ouachlou
(32.7770°N, 5.6009°W)
Time: 03:26:41
(UTC+00:00)
Language:

SL-16 R/B - Orbit

View from above orbital plane
View from above orbital plane
View from above satellite
View from above satellite

Ground track
Ground track

The orbit data is extracted from the following two-line orbital elements,

1 31793U 07029B   20221.89183203 +.00000246 +00000-0 +15355-3 0  9996
2 31793 070.9761 136.2089 0002208 257.2643 165.6577 14.14430672677105
Epoch (UTC): 08 August 2020 21:24:14
Eccentricity: 0.0002208
inclination: 70.9761°
perigee height: 842 km
apogee height: 846 km
right ascension of ascending node: 136.2089°
argument of perigee: 257.2643°
revolutions per day: 14.14430672
mean anomaly at epoch: 165.6577°
orbit number at epoch: 67710

The dashed part of the orbit path shows where the satellite is in the earth's shadow,  

DLR